Time,TemperatureF,DewpointF,PressureIn,WindDirection,WindDirectionDegrees,WindSpeedMPH,WindSpeedGustMPH,Humidity,HourlyPrecipIn,Conditions,Clouds,dailyrainin,SolarRadiationWatts/m^2,SoftwareType,DateUTC
2013-03-12 00:52:00,58.0,4.0,-100.00,WNW,303,4.0,5.0,11,0.00,,,0.00,0.000000,,2013-03-12 07:52:00,
2013-03-12 01:52:00,57.0,3.0,-100.00,NW,325,0.0,5.0,11,0.00,,,-99.99,0.000000,,2013-03-12 08:52:00,
2013-03-12 02:52:00,56.0,2.0,-100.00,SSE,162,0.0,0.0,11,0.00,,,0.00,0.000000,,2013-03-12 09:52:00,
2013-03-12 03:52:00,58.0,7.0,-100.00,SSE,152,0.0,0.0,13,0.00,,,0.00,0.000000,,2013-03-12 10:52:00,
2013-03-12 04:52:00,57.0,7.0,-100.00,NW,315,0.0,2.0,13,-99.99,,,-99.99,0.000000,,2013-03-12 11:52:00,
2013-03-12 05:02:00,57.0,7.0,-100.00,NW,315,0.0,2.0,13,-99.99,,,-99.99,0.000000,,2013-03-12 12:02:00,
2013-03-12 05:52:00,55.0,10.0,-100.00,NW,317,3.0,6.0,16,0.00,,,0.00,0.000000,,2013-03-12 12:52:00,
2013-03-12 06:02:00,55.0,10.0,-100.00,NW,317,3.0,6.0,16,0.00,,,0.00,0.000000,,2013-03-12 13:02:00,
2013-03-12 06:12:00,55.0,10.0,-100.00,NW,317,3.0,6.0,16,0.00,,,0.00,0.000000,,2013-03-12 13:12:00,
2013-03-12 06:22:00,55.0,10.0,-100.00,NW,317,3.0,6.0,16,0.00,,,0.00,0.000000,,2013-03-12 13:22:00,
2013-03-12 06:52:00,55.0,8.0,-100.00,SW,228,3.0,9.0,15,0.00,,,0.00,0.000000,,2013-03-12 13:52:00,
2013-03-12 07:02:00,55.0,8.0,-100.00,SW,228,3.0,9.0,15,0.00,,,0.00,0.000000,,2013-03-12 14:02:00,
2013-03-12 07:53:00,57.0,7.0,-100.00,WSW,239,0.0,13.0,13,0.00,,,0.00,4.000000,,2013-03-12 14:53:00,
2013-03-12 08:53:00,61.0,8.0,-100.00,South,187,3.0,9.0,12,-99.99,,,0.00,113.000000,,2013-03-12 15:53:00,
2013-03-12 09:02:00,61.0,8.0,-100.00,South,187,3.0,9.0,12,-99.99,,,0.00,113.000000,,2013-03-12 16:02:00,
2013-03-12 09:12:00,61.0,8.0,-100.00,South,187,3.0,9.0,12,-99.99,,,0.00,113.000000,,2013-03-12 16:12:00,
2013-03-12 09:22:00,61.0,8.0,-100.00,South,187,3.0,9.0,12,-99.99,,,0.00,113.000000,,2013-03-12 16:22:00,
2013-03-12 09:53:00,66.0,8.0,-100.00,South,190,1.0,14.0,10,0.00,,,0.00,418.000000,,2013-03-12 16:53:00,
2013-03-12 10:02:00,66.0,8.0,-100.00,South,190,1.0,14.0,10,0.00,,,0.00,418.000000,,2013-03-12 17:02:00,
2013-03-12 10:53:00,67.0,9.0,-100.00,SSW,197,6.0,12.0,10,0.00,,,0.00,707.000000,,2013-03-12 17:53:00,
2013-03-12 11:02:00,67.0,9.0,-100.00,SSW,197,6.0,12.0,10,0.00,,,0.00,707.000000,,2013-03-12 18:02:00,
2013-03-12 11:12:00,67.0,9.0,-100.00,SSW,197,6.0,12.0,10,0.00,,,0.00,707.000000,,2013-03-12 18:12:00,
2013-03-12 11:22:00,67.0,9.0,-100.00,SSW,197,6.0,12.0,10,0.00,,,0.00,707.000000,,2013-03-12 18:22:00,
2013-03-12 11:53:00,70.0,9.0,-100.00,South,181,2.0,13.0,9,0.00,,,0.00,945.000000,,2013-03-12 18:53:00,
2013-03-12 12:03:00,70.0,9.0,-100.00,South,181,2.0,13.0,9,0.00,,,0.00,945.000000,,2013-03-12 19:03:00,
2013-03-12 12:12:00,70.0,9.0,-100.00,South,181,2.0,13.0,9,0.00,,,0.00,945.000000,,2013-03-12 19:12:00,
2013-03-12 12:22:00,70.0,9.0,-100.00,South,181,2.0,13.0,9,0.00,,,0.00,945.000000,,2013-03-12 19:22:00,
2013-03-12 12:53:00,72.0,5.0,-100.00,ENE,71,2.0,11.0,7,0.00,,,0.00,1085.000000,,2013-03-12 19:53:00,
2013-03-12 13:02:00,72.0,5.0,-100.00,ENE,71,2.0,11.0,7,0.00,,,0.00,1085.000000,,2013-03-12 20:02:00,
2013-03-12 13:53:00,73.0,5.0,-100.00,SSE,151,6.0,12.0,7,0.00,,,0.00,1139.000000,,2013-03-12 20:53:00,
2013-03-12 14:02:00,73.0,5.0,-100.00,SSE,151,6.0,12.0,7,0.00,,,0.00,1139.000000,,2013-03-12 21:02:00,
2013-03-12 14:52:00,72.0,5.0,-100.00,SE,139,8.0,15.0,7,0.00,,,0.00,1105.000000,,2013-03-12 21:52:00,
2013-03-12 15:02:00,72.0,5.0,-100.00,SE,139,8.0,15.0,7,0.00,,,0.00,1105.000000,,2013-03-12 22:02:00,
2013-03-12 15:12:00,72.0,5.0,-100.00,SE,139,8.0,15.0,7,0.00,,,0.00,1105.000000,,2013-03-12 22:12:00,
2013-03-12 15:22:00,72.0,5.0,-100.00,SE,139,8.0,15.0,7,0.00,,,0.00,1105.000000,,2013-03-12 22:22:00,
2013-03-12 15:53:00,74.0,9.0,-100.00,SE,140,7.0,15.0,8,0.00,,,0.00,983.000000,,2013-03-12 22:53:00,
2013-03-12 16:02:00,74.0,9.0,-100.00,SE,140,7.0,15.0,8,0.00,,,0.00,983.000000,,2013-03-12 23:02:00,
2013-03-12 16:12:00,74.0,9.0,-100.00,SE,140,7.0,15.0,8,0.00,,,0.00,983.000000,,2013-03-12 23:12:00,
2013-03-12 16:22:00,74.0,9.0,-100.00,SE,140,7.0,15.0,8,0.00,,,0.00,983.000000,,2013-03-12 23:22:00,
2013-03-12 16:52:00,73.0,8.0,-100.00,SSE,161,6.0,14.0,8,0.00,,,0.00,786.000000,,2013-03-12 23:52:00,
2013-03-12 17:02:00,73.0,8.0,-100.00,SSE,161,6.0,14.0,8,0.00,,,0.00,786.000000,,2013-03-13 00:02:00,
2013-03-12 17:12:00,73.0,8.0,-100.00,SSE,161,6.0,14.0,8,0.00,,,0.00,786.000000,,2013-03-13 00:12:00,
2013-03-12 17:22:00,73.0,8.0,-100.00,SSE,161,6.0,14.0,8,0.00,,,0.00,786.000000,,2013-03-13 00:22:00,
2013-03-12 17:53:00,74.0,9.0,-100.00,SSE,152,4.0,14.0,8,0.00,,,0.00,525.000000,,2013-03-13 00:53:00,
2013-03-12 18:02:00,74.0,9.0,-100.00,SSE,152,4.0,14.0,8,0.00,,,0.00,525.000000,,2013-03-13 01:02:00,
2013-03-12 18:12:00,74.0,9.0,-100.00,SSE,152,4.0,14.0,8,0.00,,,0.00,525.000000,,2013-03-13 01:12:00,
2013-03-12 18:22:00,74.0,9.0,-100.00,SSE,152,4.0,14.0,8,0.00,,,0.00,525.000000,,2013-03-13 01:22:00,
2013-03-12 18:52:00,66.0,10.0,-100.00,South,173,4.0,10.0,11,0.00,,,0.00,142.000000,,2013-03-13 01:52:00,
2013-03-12 19:02:00,66.0,10.0,-100.00,South,173,4.0,10.0,11,0.00,,,0.00,142.000000,,2013-03-13 02:02:00,
2013-03-12 19:12:00,66.0,10.0,-100.00,South,173,4.0,10.0,11,0.00,,,0.00,142.000000,,2013-03-13 02:12:00,
2013-03-12 19:22:00,66.0,10.0,-100.00,South,173,4.0,10.0,11,0.00,,,0.00,142.000000,,2013-03-13 02:22:00,
2013-03-12 19:52:00,65.0,9.0,-100.00,SW,222,4.0,6.0,11,0.00,,,0.00,8.000000,,2013-03-13 02:52:00,
2013-03-12 20:02:00,65.0,9.0,-100.00,SW,222,4.0,6.0,11,0.00,,,0.00,8.000000,,2013-03-13 03:02:00,
2013-03-12 20:12:00,65.0,9.0,-100.00,SW,222,4.0,6.0,11,0.00,,,0.00,8.000000,,2013-03-13 03:12:00,
2013-03-12 20:21:00,65.0,9.0,-100.00,SW,222,4.0,6.0,11,0.00,,,0.00,8.000000,,2013-03-13 03:21:00,
2013-03-12 20:52:00,64.0,10.0,-100.00,NE,43,0.0,5.0,12,0.00,,,0.00,0.000000,,2013-03-13 03:52:00,
2013-03-12 21:02:00,64.0,10.0,-100.00,NE,43,0.0,5.0,12,0.00,,,0.00,0.000000,,2013-03-13 04:02:00,
2013-03-12 21:12:00,64.0,10.0,-100.00,NE,43,0.0,5.0,12,0.00,,,0.00,0.000000,,2013-03-13 04:12:00,
2013-03-12 21:22:00,64.0,10.0,-100.00,NE,43,0.0,5.0,12,0.00,,,0.00,0.000000,,2013-03-13 04:22:00,
2013-03-12 21:53:00,65.0,11.0,-100.00,WNW,296,0.0,0.0,12,0.00,,,0.00,0.000000,,2013-03-13 04:53:00,
2013-03-12 22:02:00,65.0,11.0,-100.00,WNW,296,0.0,0.0,12,0.00,,,0.00,0.000000,,2013-03-13 05:02:00,
2013-03-12 22:12:00,65.0,11.0,-100.00,WNW,296,0.0,0.0,12,0.00,,,0.00,0.000000,,2013-03-13 05:12:00,
2013-03-12 22:22:00,65.0,11.0,-100.00,WNW,296,0.0,0.0,12,0.00,,,0.00,0.000000,,2013-03-13 05:22:00,
2013-03-12 22:52:00,62.0,11.0,-100.00,NW,315,1.0,5.0,13,0.00,,,0.00,0.000000,,2013-03-13 05:52:00,
2013-03-12 23:02:00,62.0,11.0,-100.00,NW,315,1.0,5.0,13,0.00,,,0.00,0.000000,,2013-03-13 06:02:00,
2013-03-12 23:12:00,62.0,11.0,-100.00,NW,315,1.0,5.0,13,0.00,,,0.00,0.000000,,2013-03-13 06:12:00,
2013-03-12 23:22:00,62.0,11.0,-100.00,NW,315,1.0,5.0,13,0.00,,,0.00,0.000000,,2013-03-13 06:22:00,
2013-03-12 23:52:00,60.0,11.0,-100.00,NW,316,1.0,4.0,14,0.00,,,0.00,0.000000,,2013-03-13 06:52:00,